Lid_Strength_Index
10 11 12 12 12 11 10 11 11 9 7 8 9 9 9 7 7 7 7 6 6 5 4 3 2 2 2 2 2 1 1 1 1 2 2 2 2 2 1 1 1 1 1 1
10 12 9 9 10 11 11 12 12 9 7 9 9 10 9 7 7 7 7 6 6 5 5 4 3 3 2 2 2 1 1 1 1 1 1 1 2 2 1 1 0 1 1 1
11 9 8 9 10 11 11 13 11 10 9 9 11 12 10 7 7 6 6 5 5 5 5 4 4 3 3 3 2 2 1 1 1 1 1 2 1 1 2 2 1 1 1 1
11 9 9 10 11 11 15 10 9 9 11 15 12 16 13 12 10 7 6 6 6 5 4 4 4 4 3 2 2 2 1 1 1 1 2 2 2 3 2 2 1 0 1 0
10 9 10 11 10 10 11 10 11 10 14 15 13 16 14 12 12 11 7 6 6 5 5 5 4 3 3 2 2 2 2 1 1 1 1 1 2 2 2 2 2 1 1 1
10 9 10 10 9 9 9 11 12 13 16 18 17 15 15 13 11 10 7 6 6 5 4 4 3 3 3 2 2 2 2 2 2 1 1 2 2 2 2 2 2 2 1 1
11 11 10 9 11 10 11 14 16 16 18 18 16 16 15 9 8 7 7 6 6 5 5 4 4 4 3 3 2 2 2 2 1 1 1 1 2 2 2 2 2 2 2 1
15 13 10 9 10 12 12 13 16 18 19 17 15 15 12 8 7 6 6 6 5 5 5 4 4 4 3 3 2 2 2 2 2 1 1 1 1 1 1 1 1 1 1 1
15 13 9 9 10 10 13 14 13 16 17 17 16 12 9 9 9 8 7 7 6 6 5 4 4 3 3 3 3 2 2 2 2 2 1 1 1 1 1 1 1 1 1 1
11 14 11 8 8 8 11 11 14 16 18 18 16 15 17 12 11 9 8 8 7 6 5 5 4 4 3 3 2 2 2 2 2 1 1 1 1 1 1 2 1 1 1 1
12 12 11 9 11 12 11 12 13 14 16 17 18 18 11 11 10 9 8 7 6 7 6 5 4 4 3 3 3 3 2 2 2 1 1 1 1 1 1 1 1 1 1 1
10 13 13 12 10 9 11 12 12 15 15 16 16 17 9 9 8 8 8 7 6 5 6 5 4 4 3 3 3 3 2 2 2 2 1 1 1 1 1 1 1 1 1 1
10 13 15 14 12 10 11 10 13 14 14 16 16 16 8 8 8 7 8 7 6 6 5 5 5 5 5 5 5 5 5 4 3 2 2 2 2 1 1 1 1 1 1 2
8 14 14 15 14 12 12 12 11 13 15 17 16 14 12 10 9 8 7 7 6 6 5 5 5 5 5 4 4 5 4 5 5 5 5 4 2 1 1 1 1 1 1 2
11 14 13 13 10 10 11 12 12 14 15 16 15 15 12 10 9 8 7 6 6 6 6 5 5 4 4 3 3 2 3 4 4 4 3 3 2 1 1 1 1 1 1 1
13 15 15 15 12 11 12 11 11 12 12 12 12 13 9 8 7 7 7 7 7 6 6 5 5 4 4 3 3 3 2 2 3 4 4 3 3 3 1 1 1 1 1 1
14 15 16 17 13 12 14 12 12 12 11 12 15 13 9 9 8 8 7 7 7 6 6 5 5 4 4 3 3 4 3 3 3 4 4 3 4 4 3 1 1 1 2 2
14 14 15 15 14 17 12 9 9 11 10 10 10 9 8 8 7 6 6 6 6 5 5 4 4 4 3 3 3 3 3 3 4 3 3 3 3 3 3 2 2 2 1 2
12 13 14 15 16 15 12 10 10 12 13 9 9 8 7 7 6 7 5 5 5 4 4 4 3 3 3 3 3 3 3 4 3 3 3 2 2 2 3 2 2 2 2 2
11 12 12 15 16 17 13 8 7 8 15 8 8 8 8 7 12 9 5 4 4 4 3 3 3 3 3 2 2 3 3 3 3 2 2 2 2 2 2 2 2 2 1 2
13 13 14 14 16 14 10 8 7 15 14 8 7 7 7 9 8 6 4 4 4 4 4 3 3 3 3 2 2 3 3 3 2 2 2 2 2 2 2 2 2 2 2 2
14 14 14 14 17 17 7 8 12 9 8 7 7 6 7 6 6 5 4 4 4 4 3 3 4 3 3 3 3 3 3 2 2 2 2 2 2 2 1 3 6 2 2 3
13 11 13 13 13 8 8 8 6 6 7 7 7 6 5 6 6 6 6 5 4 4 3 3 3 4 3 3 3 3 2 2 2 2 2 2 2 2 2 2 2 3 3 3
10 9 11 11 10 9 7 6 6 6 6 5 5 5 6 6 6 7 7 7 6 5 4 3 3 3 4 2 2 3 2 2 2 3 2 2 2 2 2 2 3 3 3 3
9 9 10 11 10 8 7 6 6 6 5 5 5 5 5 6 6 6 6 6 6 6 5 4 5 5 3 2 2 2 3 2 2 3 2 2 2 3 3 3 2 3 4 4
9 10 11 12 8 8 8 6 5 6 6 6 5 5 6 5 7 7 6 6 6 6 5 6 6 5 4 4 3 2 2 2 2 3 3 3 3 3 3 3 3 6 9 10